Погода Казанская

Погода Казанская : погода сейчас, прогноз погоды и архив. Всё, что Вы хотите узнать о погоде Казанская!

Хотите узнать прогноз погоды Казанская? Тогда Вам сюда: Погода Казанская

Поиск расширенной информации на нашем сайте:

Другие новости

Новости СМИ2

Главная страница сайта

Новости сайта

03.07.2017

Напоминаем, что на нашем специализированном сайте Метеоцентр.Азия вы можете получить высокодетализированные автоматические прогнозы погоды по пунктам России, СНГ и мира в авиационном формате (включающие направление и скорость ветра, видимость, явления погоды, количество и форму облачности, нижнюю и верхнюю границу облачности).


Погода Казанская - сегодня

Время (UTC), дата Ветер
(°,м/с) 
Видим.   Явления Облачность Т
(°С)
Тd
(°С)
f(%) Тe
(°С)
Pmin
(гПа)
dP
(гПа)
Po
(мм)
O2
(г/м3)
Тmin Tmax R s Состояние
почвы
21 17.04.18 220 (ЮЗ) 20000 м    10/10 600 м 
[]
+15.7 +1.7 39 +15  1018.6  -0.8  758  288           
00 18.04.18 290 (З) 20000 м    10/10 600 м кучево-дожд. 
[Cb cap]
+14.1 +3.6 49 +15  1018.7  0.1  758  290           
03 18.04.18 310 (СЗ) 20000 м    10/0 средняя 
[As op]
+13.6 +4.1 53 +15  1018.2  -0.5  757  290  +13.5        влажная 
06 18.04.18 220 (ЮЗ) 20000 м    9/8 1000 м средняя 
[Cu Sc|Ac trans]
+17.3 +5.8 47 +18  1017.3  -0.8  757  286  +12.5         
09 18.04.18 250 (З) 7-12{12}  20000 м    10/4 600 м кучево-дожд., средняя, верхняя 
[Cb cap|Ac lent|Cs]
+21.4 -4.5 17 +21  1015.2  -2  755  283           
12 18.04.18 280 (З) 5-11{14}  20000 м    10/3 600 м кучево-дожд., средняя 
[Cb cap|Ac As]
+16.1 +5.2 48 +16  1015  -0.3  755  286           
15 18.04.18 260 (З) 20000 м  {ливн. осадки}  10/6 600 м кучево-дожд., средняя 
[Cb cap|Ac As]
+12.2 +9.5 84 +12  1013.5  -1.6  754  289    +21.7     
18 18.04.18 280 (З) 20000 м  {ливн. осадки}  ясно 
+11.2 +10.1 93 +12  1013.1  -0.4  753  290           
21 18.04.18 290 (З) 20000 м    ясно 
+10.1 +9.2 94 +10  1011.7  -1.4  752  291           
00 19.04.18 270 (З) 10 км    ясно 
+8.6 +7.5 93 +10  1009.3  -2.4  751  292           
03 19.04.18 210 (ЮЗ) 20000 м  в посл. час ливневой дождь  10/8 600 м кучево-дожд., средняя 
[Cb cap|Ac As]
+9.1 +8 93 +9  1006.7  -2.6  749  291  +7.8       
06 19.04.18 260 (З) 20000 м  {ливн. осадки}  10/8 600 м кучево-дожд., средняя 
[Cb cap|Ac und]
+9.5 +6.7 83 +9  1004.6  -2.1  747  290           
09 19.04.18 250 (З) 5-10{10}  20000 м    10/8 600 м кучево-дожд., средняя 
[Cb cap|Ac trans]
+10.9 +6.2 73 +10  1002.5  -2  746  288           
12 19.04.18 260 (З) 4{11}  10 км  слаб. ливневой дождь  10/10 600 м кучево-дожд. 
[Cb cap]
+10.2 +8.1 87 +9  1000.7  -1.8  744  288           
15 19.04.18 270 (З) 10 км  слаб. ливневой дождь  10/10 600 м кучево-дожд. 
[Cb cap]
+9.2 +7.6 90 +9  999.5  -1.3  743  288    +17.3     
18 19.04.18 250 (З) 10 км  слаб. дождь{ливн. осадки}  10/10 300 м 
[Frnb|Ns]
+8.3 +7.6 95 +8  998.6  -0.9  743  289           
21 19.04.18 300 (СЗ) 10 км  слаб. дождь  10/10 300 м 
[Frnb|Ns]
+8 +7.5 97 +9  997.5  -1  742  289           
00 20.04.18 330 (СЗ) 20000 м  {дождь}  10/10 600 м 
[Sc]
+7.5 +7.3 99 +8  997.7  -1  742  290           
03 20.04.18 330 (СЗ) 20000 м    10/10 300 м 
[Sc]
+7.2 +6.8 97 +7  998.8  1.1  743  290  +7.2      влажная 
06 20.04.18 330 (СЗ) 10 км  слаб. дождь  10/10 300 м 
[Frnb|Ns]
+8 +7.5 97 +7  999.9  1.1  744  290  +7.2         
09 20.04.18 340 (С) 20000 м  {дождь}  10/10 600 м кучево-дожд. 
[Cb cap]
+9 +7.6 91 +8  1002.1  2.2  745  289           
12 20.04.18 350 (С) 4{10}  20000 м  {дождь}  10/0 кучево-дожд. 
[Cb cap]
+10 +7.7 86 +9  1004.7  2.5  747  289           
15 20.04.18 340 (С) 3{10}  20000 м    8/8 600 м кучево-дожд. 
[Cb cap]
+11.1 +7.6 79 +11  1007.1  2.4  749  289    +11.6     
18 20.04.18 330 (СЗ) 20000 м    8/0 средняя 
[Ac trans]
+9.8 +6.6 80 +9  1010.2  3.1  751  291           
21 20.04.18 280 (З) 20000 м    ясно 
+7.6 +5.9 89 +9  1011.4  1.1  752  294           
Время (UTC), дата Ветер
(°,м/с) 
Видим.   Явления Облачность Т
(°С)
Тd
(°С)
f(%) Тe
(°С)
Pmin
(гПа)
dP
(гПа)
Po
(мм)
O2
(г/м3)
Тmin Tmax R s Состояние
почвы

Для получения пояснительной информации подведите курсор к названию столбца.

ПОГОДА Казанская - архив

Всё, что Вы хотите узнать о погоде Казанская - удобно и подробно!

Выберите нужную дату (начиная с 1 января 2015* года) и нажмите кнопку "Найти".
Будут отображены архивные сводки погоды по пункту Казанская, начиная с указанной даты.


Отображать данные в формате CSV (для использования в таблицах Excel)


Внимание! Наш архив погоды предназначен исключительно для личного некоммерческого использования в познавательных целях. Если Вам необходимы официальные справки о состоянии погоды (для производственных, юридических, коммерческих и т.п. целей), обращайтесь в органы Росгидромета.

*Примечание: данная дата относится к архиву по метеостанциям СССР (Россия, СНГ, Балтия).
Архив по метеостанциям Зарубежной Европы и Азии (кроме Китая) хранится 10 дней, по другим регионам земного шара (Китай, Африка, Америка, Австралия, Океания) - 1 день.

Казанская - район местоположения метеостанции


Название, широта, долгота, высота метеостанции:
Казанская 49.8°ш. 41.2°д. 72 м над ур. моря [Российская Федерация]

Дополнительная информация

В oтличие oт бoльшинства пoгoдных сайтoв мы публикуем пoдрoбную метеoинфoрмацию в детальнoм прoфессиoнальнoм фoрмате.

Характеристики температуры и влажнoсти вoздуха измеряются на высoте 2 м в тени вдали oт зданий и деревьев.
Скoрoсть ветра измеряется на высoте 10 м (на урoвне рoста челoвека скoрoсть ветра ниже в 1.5-2 раза). Если метеoстанция нахoдится в гoрoде или в лесу, тo скoрoсть ветра занижена на 2-4 м/с пo сравнению с oткрытым местoм. Скoрoсть ветра над акватoриями крупных рек и oзёр, а также на вершинах хoлмoв на 2-5 м/с выше, чем в oбычных услoвиях.
Атмoсфернoе давление в разных тoчках местнoсти мoжет значительнo oтличаться oт давления на метеoстанции, в зависимoсти oт услoвий рельефа (при пoдъёме на 10 м давление пoнижается примернo на 1 мм рт.ст.).